This is the latest recevied weather packets stored in our database for station/object KQ4KX. If no packets are shown the sender has not sent any weather packets the latest 10 day(s).
| Time | Temp. | Humidity | Pressure | Rain* | Wind** | Luminosity | Snow |
|---|---|---|---|---|---|---|---|
| 1777408645 | 30.56° C | 58% | 1017.6 hPa | 0 mm | - | - | - |
| 1777407715 | 30° C | 60% | 1018.1 hPa | 0 mm | - | - | - |
| 1777407415 | 30.56° C | 58% | 1018.2 hPa | 0 mm | - | - | - |
| 1777407084 | 30.56° C | 56% | 1018.3 hPa | 0 mm | - | - | - |
| 1777406785 | 31.11° C | 57% | 1018.4 hPa | 0 mm | - | - | - |
| 1777406485 | 31.11° C | 57% | 1018.4 hPa | 0 mm | - | - | - |
| 1777406154 | 30.56° C | 57% | 1018.5 hPa | 0 mm | - | - | - |
| 1777405855 | 30.56° C | 58% | 1018.5 hPa | 0 mm | - | - | - |
| 1777405255 | 30.56° C | 60% | 1018.7 hPa | 0 mm | - | - | - |
| 1777404954 | 30° C | 60% | 1018.8 hPa | 0 mm | - | - | - |
| 1777404654 | 30.56° C | 58% | 1018.8 hPa | 0 mm | - | - | - |
| 1777403425 | 31.11° C | 58% | 1018.8 hPa | 0 mm | - | - | - |
| 1777403124 | 31.67° C | 56% | 1018.9 hPa | 0 mm | - | - | - |
| 1777402794 | 31.11° C | 56% | 1018.9 hPa | 0 mm | - | - | - |
| 1777402465 | 31.11° C | 56% | 1018.9 hPa | 0 mm | - | - | - |
| 1777402164 | 31.67° C | 58% | 1018.9 hPa | 0 mm | - | - | - |
| 1777401206 | 31.11° C | 60% | 1018.9 hPa | 0 mm | - | - | - |
| 1777400904 | 31.11° C | 59% | 1019 hPa | 0 mm | - | - | - |
| 1777400686 | 30.56° C | 59% | 1019.1 hPa | 0 mm | - | - | - |
| 1777400575 | 30.56° C | 59% | 1019.1 hPa | 0 mm | - | - | - |
| 1777400275 | 30.56° C | 61% | 1019.1 hPa | 0 mm | - | - | - |
| 1777399644 | 30° C | 61% | 1019.2 hPa | 0 mm | - | - | - |
| 1777398985 | 31.11° C | 60% | 1019.3 hPa | 0 mm | - | - | - |
| 1777398354 | 30° C | 63% | 1019.4 hPa | 0 mm | - | - | - |
| 1777398024 | 30° C | 63% | 1019.5 hPa | 0 mm | - | - | - |
* Rain latest hour (hover to see other rain measurements)
** Current wind speed in m/s (hover to see current wind gust speed)